Weather History for Spokane, WA

Change the Weather History Date:

Tuesday, October 4, 2011

  Actual Average Record
Temperature  
Mean Temperature 51 °F 53 °F  
Max Temperature 54 °F 65 °F 87 °F (1943)
Min Temperature 47 °F 41 °F 29 °F (1985)
Degree Days  
Heating Degree Days 14 12  
Month to date heating degree days 25 47  
Since 1 July heating degree days 172 295  
Cooling Degree Days 0 0  
Month to date cooling degree days 0 0  
Year to date cooling degree days 426 449  
Growing Degree Days 1 (Base 50)    
Moisture  
Dew Point 45 °F    
Average Humidity 86    
Maximum Humidity 100    
Minimum Humidity 71    
Precipitation  
Precipitation 0.05 in 0.03 in 0.59 in (1949)
Month to date precipitation 0.21 0.10  
Year to date precipitation 12.14 10.88  
Snow  
Snow 0.00 in 0.00 in T in (2007)
Month to date snowfall 0.0 0.0  
Since 1 July snowfall 0.0 0.0  
Since 1 September snowfall 0.0 0.0  
Snow Depth 0.00 in    
Sea Level Pressure  
Sea Level Pressure 29.70 in    
Wind  
Wind Speed 7 mph (SSE)    
Max Wind Speed 13 mph    
Max Gust Speed 18 mph    
Visibility 10 miles    
Events Rain    
T = Trace of Precipitation, MM = Missing Value Source: NWS Daily Summary

Daily Weather History Graph

Daily Weather History Graph

Search for Another Location

Airport:

Trip Planner

Search our weather history database for the weather conditions in past years. The results will help you decide how hot, cold, wet, or windy it might be!

Date:

Astronomy

Oct. 04, 2011 Rise Set
Actual Time 6:53 AM PDT 6:23 PM PDT
Civil Twilight 6:22 AM PDT 6:54 PM PDT
Nautical Twilight 5:46 AM PDT 7:30 PM PDT
Astronomical Twilight 5:10 AM PDT 8:06 PM PDT
Moon 2:55 PM PDT (10/4) No Moon Set
Length of Visible Light 12h 32m
Length of Day
11h 30m
First Quarter, 57% of the Moon is Illuminated
Oct 4
First Quarter
Oct 11
Full
Oct 19
Last Quarter
Oct 26
New
Nov 2
First Quarter

Hourly Weather History & Observations

Time (PDT) Temp. Dew Point Humidity Pressure Visibility Wind Dir Wind Speed Gust Speed Precip Events Conditions
12:53 AM 53.6 °F 39.2 °F 58% 29.78 in 10.0 mi SW 6.9 mph - N/A Rain Light Rain
1:53 AM 54.0 °F 39.9 °F 59% 29.73 in 10.0 mi Calm Calm - 0.00 in Rain Light Rain
2:53 AM 52.0 °F 43.0 °F 71% 29.71 in 10.0 mi WSW 4.6 mph - 0.00 in Rain Light Rain
3:53 AM 51.8 °F 44.6 °F 76% 29.74 in 10.0 mi SSE 5.8 mph - N/A Rain Light Rain
4:53 AM 50.0 °F 43.0 °F 77% 29.71 in 10.0 mi South 5.8 mph - 0.00 in   Overcast
5:53 AM 50.0 °F 45.0 °F 83% 29.72 in 10.0 mi SSW 5.8 mph - 0.00 in   Overcast
6:53 AM 50.0 °F 44.1 °F 80% 29.74 in 10.0 mi SW 10.4 mph - N/A   Overcast
7:53 AM 48.9 °F 46.0 °F 90% 29.77 in 6.0 mi SW 10.4 mph - 0.00 in Rain Light Rain
8:50 AM 48.2 °F 46.4 °F 93% 29.76 in 8.0 mi South 5.8 mph - N/A Rain Light Rain
8:53 AM 48.2 °F 46.4 °F 93% 29.76 in 7.0 mi South 5.8 mph - N/A Rain Light Rain
9:53 AM 50.0 °F 48.0 °F 93% 29.76 in 10.0 mi South 9.2 mph - 0.01 in   Overcast
10:53 AM 50.0 °F 48.0 °F 93% 29.75 in 10.0 mi SSE 8.1 mph - 0.00 in Rain Light Rain
11:26 AM 51.8 °F 48.2 °F 88% 29.74 in 10.0 mi SSE 6.9 mph - 0.01 in Rain Light Rain
11:53 AM 51.1 °F 48.0 °F 89% 29.75 in 10.0 mi South 8.1 mph - 0.01 in Rain Light Rain
12:53 PM 51.1 °F 46.9 °F 86% 29.73 in 10.0 mi South 6.9 mph - 0.01 in Rain Light Rain
1:53 PM 53.1 °F 46.0 °F 77% 29.70 in 10.0 mi SSE 5.8 mph - 0.00 in   Mostly Cloudy
2:53 PM 53.6 °F 44.6 °F 72% 29.71 in 10.0 mi South 5.8 mph - N/A   Overcast
3:53 PM 54.0 °F 44.1 °F 69% 29.69 in 10.0 mi SE 6.9 mph - N/A   Overcast
4:53 PM 53.1 °F 44.1 °F 71% 29.67 in 10.0 mi SE 6.9 mph - N/A   Mostly Cloudy
5:53 PM 53.1 °F 46.0 °F 77% 29.66 in 10.0 mi ESE 6.9 mph - N/A   Mostly Cloudy
6:53 PM 52.0 °F 46.0 °F 80% 29.65 in 10.0 mi East 5.8 mph - N/A   Mostly Cloudy
7:53 PM 50.0 °F 46.0 °F 86% 29.64 in 10.0 mi NE 3.5 mph - N/A   Mostly Cloudy
8:53 PM 50.0 °F 46.0 °F 86% 29.62 in 10.0 mi ENE 8.1 mph - N/A   Mostly Cloudy
9:53 PM 48.9 °F 46.0 °F 90% 29.60 in 10.0 mi ENE 6.9 mph - N/A   Scattered Clouds
10:53 PM 48.0 °F 46.0 °F 93% 29.58 in 10.0 mi ENE 8.1 mph - N/A   Scattered Clouds
11:53 PM 46.9 °F 46.0 °F 97% 29.55 in 10.0 mi ENE 9.2 mph - N/A   Mostly Cloudy